| time (UTC) | temp C | wind direction | speed KPH | gust KPH | rain 1hr cm | rain 24hr cm | rain mn cm | humidity % | barometer mb |
| 20260505214545 | 10 | 0 | 0.0 | 4.8 | 0.00 | 0.00 | 0.00 | 81 | 1013.6 |
| 20260505213043 | 10 | 80 | 0.0 | 3.2 | 0.00 | 0.00 | 0.00 | 81 | 1013.7 |
| 20260505211547 | 10 | 23 | 1.6 | 8.0 | 0.00 | 0.00 | 0.00 | 81 | 1013.6 |
| 20260505210047 | 10 | 34 | 0.0 | 4.8 | 0.00 | 0.00 | 0.00 | 80 | 1013.6 |
| 20260505204559 | 10 | 29 | 0.0 | 6.4 | 0.00 | 0.00 | 0.00 | 80 | 1013.4 |
| 20260505203101 | 10 | 34 | 3.2 | 6.4 | 0.00 | 0.00 | 0.00 | 79 | 1013.5 |
| 20260505201549 | 10 | 0 | 0.0 | 3.2 | 0.00 | 0.00 | 0.00 | 80 | 1013.4 |
| 20260505200050 | 10 | 8 | 0.0 | 8.0 | 0.00 | 0.00 | 0.00 | 81 | 1013.3 |
| 20260505194605 | 11 | 31 | 0.0 | 3.2 | 0.00 | 0.00 | 0.00 | 82 | 1013.1 |
| 20260505193050 | 11 | 5 | 0.0 | 3.2 | 0.00 | 0.00 | 0.00 | 81 | 1013.0 |
| 20260505191603 | 11 | 36 | 1.6 | 8.0 | 0.00 | 0.00 | 0.00 | 80 | 1012.9 |
| 20260505190048 | 11 | 18 | 3.2 | 6.4 | 0.00 | 0.00 | 0.00 | 79 | 1012.9 |
| 20260505184549 | 11 | 38 | 1.6 | 12.9 | 0.00 | 0.00 | 0.00 | 78 | 1012.8 |
| 20260505183054 | 11 | 85 | 3.2 | 8.0 | 0.00 | 0.00 | 0.00 | 77 | 1012.8 |
| 20260505181556 | 12 | 8 | 3.2 | 11.3 | 0.00 | 0.00 | 0.00 | 75 | 1012.6 |
| 20260505180056 | 12 | 23 | 4.8 | 14.5 | 0.00 | 0.00 | 0.00 | 74 | 1012.7 |
| 20260505174545 | 12 | 39 | 4.8 | 16.1 | 0.00 | 0.00 | 0.00 | 74 | 1012.7 |
| 20260505173055 | 12 | 28 | 4.8 | 19.3 | 0.00 | 0.00 | 0.00 | 73 | 1012.7 |
| 20260505171554 | 13 | 11 | 6.4 | 16.1 | 0.00 | 0.00 | 0.00 | 73 | 1012.8 |
| 20260505170052 | 13 | 71 | 6.4 | 22.5 | 0.00 | 0.00 | 0.00 | 71 | 1012.8 |
| 20260505164548 | 13 | 39 | 4.8 | 14.5 | 0.00 | 0.00 | 0.00 | 70 | 1012.8 |
| 20260505163048 | 13 | 28 | 4.8 | 14.5 | 0.00 | 0.00 | 0.00 | 70 | 1012.8 |
| 20260505161551 | 13 | 108 | 4.8 | 19.3 | 0.00 | 0.00 | 0.00 | 70 | 1012.8 |
| 20260505153050 | 13 | 72 | 8.0 | 17.7 | 0.00 | 0.00 | 0.00 | 72 | 1012.9 |
| 20260505151548 | 13 | 39 | 8.0 | 19.3 | 0.00 | 0.00 | 0.00 | 69 | 1013.0 |
| 20260505150106 | 14 | 23 | 4.8 | 16.1 | 0.00 | 0.00 | 0.00 | 72 | 1012.9 |
| 20260505124556 | 14 | 0 | 4.8 | 16.1 | 0.00 | 0.00 | 0.00 | 69 | 1013.6 |
| 20260505123053 | 13 | 356 | 9.7 | 19.3 | 0.00 | 0.00 | 0.00 | 72 | 1013.6 |
| 20260505121619 | 13 | 224 | 4.8 | 16.1 | 0.00 | 0.00 | 0.00 | 76 | 1013.6 |
| 20260505120047 | 13 | 55 | 8.0 | 19.3 | 0.00 | 0.00 | 0.00 | 74 | 1013.5 |
| 20260505114544 | 14 | 336 | 4.8 | 16.1 | 0.00 | 0.00 | 0.00 | 73 | 1013.5 |
| 20260505113054 | 13 | 23 | 4.8 | 16.1 | 0.00 | 0.00 | 0.00 | 74 | 1013.5 |
| 20260505111550 | 13 | 344 | 3.2 | 16.1 | 0.00 | 0.00 | 0.00 | 75 | 1013.7 |
| 20260505101551 | 12 | 102 | 3.2 | 14.5 | 0.00 | 0.00 | 0.00 | 79 | 1014.1 |
| 20260505100123 | 12 | 30 | 4.8 | 16.1 | 0.00 | 0.00 | 0.00 | 82 | 1014.1 |
| 20260505094548 | 12 | 6 | 3.2 | 11.3 | 0.00 | 0.00 | 0.00 | 83 | 1014.2 |
| 20260505093044 | 11 | 15 | 1.6 | 11.3 | 0.00 | 0.00 | 0.00 | 85 | 1014.1 |
| 20260505091611 | 11 | 63 | 3.2 | 12.9 | 0.00 | 0.00 | 0.00 | 85 | 1014.1 |
| 20260505090058 | 11 | 31 | 6.4 | 16.1 | 0.00 | 0.00 | 0.00 | 86 | 1014.1 |
| 20260505084549 | 11 | 46 | 8.0 | 16.1 | 0.00 | 0.00 | 0.00 | 87 | 1014.2 |
| 20260505083051 | 11 | 22 | 4.8 | 14.5 | 0.00 | 0.00 | 0.00 | 90 | 1014.3 |
| 20260505081550 | 10 | 14 | 6.4 | 17.7 | 0.00 | 0.00 | 0.00 | 91 | 1014.2 |
| 20260505080050 | 10 | 54 | 4.8 | 12.9 | 0.00 | 0.00 | 0.00 | 92 | 1014.2 |
| 20260505074550 | 10 | 358 | 4.8 | 17.7 | 0.00 | 0.00 | 0.00 | 93 | 1014.1 |
| 20260505073058 | 10 | 7 | 4.8 | 9.7 | 0.00 | 0.00 | 0.00 | 93 | 1014.1 |
| 20260505071547 | 10 | 16 | 1.6 | 12.9 | 0.00 | 0.00 | 0.00 | 94 | 1014.2 |
| 20260505070051 | 10 | 20 | 3.2 | 8.0 | 0.00 | 0.00 | 0.00 | 95 | 1014.2 |
| 20260505064553 | 9 | 18 | 0.0 | 8.0 | 0.00 | 0.00 | 0.00 | 96 | 1014.2 |
| 20260505063050 | 9 | 36 | 1.6 | 6.4 | 0.00 | 0.00 | 0.00 | 97 | 1014.2 |
| 20260505061551 | 8 | 24 | 0.0 | 4.8 | 0.00 | 0.00 | 0.00 | 97 | 1014.2 |
| 20260505060050 | 8 | 25 | 0.0 | 1.6 | 0.00 | 0.00 | 0.00 | 97 | 1014.2 |
| 20260505054617 | 8 | 0 | 0.0 | 1.6 | 0.00 | 0.00 | 0.00 | 97 | 1014.1 |
| 20260505053052 | 8 | 0 | 0.0 | 1.6 | 0.00 | 0.00 | 0.00 | 97 | 1014.1 |
| 20260505051549 | 8 | 0 | 1.6 | 4.8 | 0.00 | 0.00 | 0.00 | 97 | 1014.0 |
| 20260505041601 | 8 | 0 | 0.0 | 1.6 | 0.00 | 0.00 | 0.00 | 97 | 1013.9 |
| 20260505040044 | 8 | 0 | 0.0 | 1.6 | 0.00 | 0.00 | 0.00 | 97 | 1013.8 |
| 20260505034549 | 8 | 0 | 0.0 | 6.4 | 0.00 | 0.00 | 0.00 | 97 | 1013.7 |
| 20260505033047 | 9 | 0 | 0.0 | 6.4 | 0.00 | 0.00 | 0.00 | 97 | 1013.7 |
| 20260505031553 | 8 | 70 | 0.0 | 4.8 | 0.00 | 0.00 | 0.00 | 97 | 1013.7 |
| 20260505024551 | 9 | 0 | 0.0 | 1.6 | 0.00 | 0.00 | 0.00 | 96 | 1013.9 |
| 20260505023050 | 9 | 0 | 0.0 | 1.6 | 0.00 | 0.00 | 0.00 | 96 | 1013.9 |
| 20260505021553 | 9 | 0 | 0.0 | 1.6 | 0.00 | 0.00 | 0.00 | 96 | 1014.0 |
| 20260505020053 | 9 | 0 | 0.0 | 1.6 | 0.00 | 0.00 | 0.00 | 96 | 1014.1 |
| 20260505014551 | 10 | 0 | 0.0 | 3.2 | 0.00 | 0.00 | 0.00 | 96 | 1014.3 |
| 20260505013043 | 10 | 0 | 0.0 | 6.4 | 0.00 | 0.00 | 0.00 | 96 | 1014.3 |
| 20260505011550 | 10 | 0 | 0.0 | 0.0 | 0.00 | 0.00 | 0.00 | 96 | 1014.3 |
| 20260505010106 | 10 | 0 | 0.0 | 1.6 | 0.00 | 0.00 | 0.00 | 96 | 1014.3 |
| 20260505004551 | 10 | 0 | 0.0 | 3.2 | 0.00 | 0.00 | 0.00 | 96 | 1014.3 |
| 20260505003050 | 10 | 32 | 0.0 | 4.8 | 0.00 | 0.00 | 0.00 | 96 | 1014.4 |
| 20260505001546 | 10 | 0 | 0.0 | 1.6 | 0.00 | 0.00 | 0.00 | 96 | 1014.7 |
| 20260505000052 | 10 | 0 | 0.0 | 1.6 | 0.00 | 0.00 | 0.00 | 97 | 1014.8 |
| 20260504234552 | 10 | 101 | 0.0 | 1.6 | 0.00 | 0.00 | 0.00 | 97 | 1014.9 |
| 20260504233053 | 10 | 0 | 0.0 | 1.6 | 0.00 | 0.00 | 0.00 | 96 | 1014.8 |
| 20260504231547 | 10 | 0 | 0.0 | 1.6 | 0.00 | 0.00 | 0.00 | 96 | 1014.9 |
| 20260504230107 | 10 | 0 | 0.0 | 3.2 | 0.00 | 0.00 | 0.00 | 96 | 1014.5 |
| 20260504224606 | 10 | 85 | 0.0 | 1.6 | 0.00 | 0.00 | 0.00 | 96 | 1014.4 |
| 20260504223051 | 10 | 13 | 0.0 | 3.2 | 0.00 | 0.00 | 0.00 | 96 | 1014.7 |
| 20260504221550 | 10 | 0 | 0.0 | 4.8 | 0.00 | 0.00 | 0.00 | 97 | 1014.7 |
| 20260504220100 | 10 | 0 | 0.0 | 0.0 | 0.00 | 0.00 | 0.00 | 96 | 1014.9 |